Realtime Insider Trading Report - all trades (page 5 of 6)

Insider all trades reported on August 16, 2019


Buys only Buys & sales       Page:  1   2   3   4   5   6 

Note: B: Buy;   S: Sale;   O: Option Exercise.

Company Shares Price   Value($)   Time  
Century Bancorp Inc B 60080.1248,069 17:33:38
B 20081.3016,260 17:33:38
B 50081.7440,870 17:33:38
B 50081.2040,600 17:33:38
B 13180.9010,597 17:33:38
Honeywell International Inc S 7,149165.081,180,156 17:36:05
Pegasystems Inc O 1,437.000 17:36:34
Ani Pharmaceuticals Inc S 26,36069.891,842,300 17:38:21
S 9,31569.34645,902 17:38:21
S 26,34968.091,794,103 17:38:21
Rosehill Resources Inc. B 8,1001.5712,717 17:40:01
B 9,9111.4714,569 17:40:01
B 6,9891.439,994 17:40:01
Inuvo, Inc. O 46,667.000 17:40:44
O 98,000.000 17:40:48
O 35,000.000 17:40:52
O 16,333.000 17:40:55
Pegasystems Inc O 1,437.000 17:41:22
Rosehill Resources Inc. B 7801.411,099 17:41:38
B 7,4201.5511,501 17:41:38
Carrizo Oil & Gas Inc S 8,0008.2766,120 17:41:54
Ralph Lauren Corp S 35,71485.953,069,689 17:44:57
Clovis Oncology, Inc. B 8,6005.6748,762 17:45:21
Cytokinetics Inc S 6,00012.6475,816 17:45:47
Senestech, Inc. S 20,0001.1923,740 17:46:04
S 20,0001.2424,760 17:46:04
S 20,0001.1823,620 17:46:08
S 20,0001.2124,100 17:46:08
Autoweb, Inc. B 50,0002.31115,500 17:47:55
Pegasystems Inc O 1,437.000 17:50:38
Alamo Group Inc S 1,200108.72130,470 17:53:40
Mgp Ingredients Inc B 25054.3013,575 17:56:34
Kkr Real Estate Finance Trust Inc. B 5,00019.1595,750 18:00:31
B 13,00018.85245,050 18:00:57
Alamo Group Inc S 1,000106.18106,184 18:04:47
Sba Communications Corp S 620258.26160,121 18:05:57
Tetra Tech Inc O 16,75022.53377,377 18:08:29
S 16,75077.421,296,868 18:08:29
O 4,20024.26101,892 18:08:49
S 4,20080.08336,344 18:08:49
O 4,00023.5294,080 18:09:08
S 4,00078.00312,000 18:09:08
Match Group, Inc. O 16,50014.27235,405 18:13:20
O 49,16714.27701,465 18:13:20
S 6,15379.47488,972 18:13:20
S 18,48882.281,521,192 18:13:20
Pricesmart Inc S 10,00056.55565,510 18:16:47
S 10,00056.60566,050 18:17:14
Autozone Inc O 500159.1879,590 18:18:05
S 5001,077.04538,520 18:18:05
Hope Bancorp Inc S 10,00013.59135,850 18:20:13
Bonanza Creek Energy, Inc. S 2,81321.9961,857 18:20:36
Bassett Furniture Industries Inc B 2,00011.9023,800 18:22:03
Tabula Rasa Healthcare, Inc. S 3,04461.32186,658 18:30:31
Target Hospitality Corp. B 55,0006.93381,150 18:34:58
Anaplan, Inc. O 9577.126,813 18:35:29
S 95755.5053,113 18:35:29
O 190.000 18:36:37
Castlight Health, Inc. O 1,875.000 18:37:48
S 6521.38899 18:37:48
Walgreens Boots Alliance, Inc. S 123,49650.066,182,209 18:40:39
S 91,82751.024,685,013 18:40:39
Guardant Health, Inc. O 19,6064.1881,953 18:50:33
O 8,4284.1835,229 18:50:33
S 61,26898.236,018,416 18:50:33
O 53,1504.18222,166 18:50:33
S 26,33698.552,595,333 18:50:33
S 166,095101.0816,788,882 18:50:33
Providence Service Corp B 86457.8049,939 18:59:57
Alteryx, Inc. S 76,289130.999,993,096 19:00:22
Cdk Global, Inc. S 50043.3021,650 19:00:28
Vonage Holdings Corp S 197,30813.182,600,519 19:02:29
S 161,85513.152,128,393 19:02:29
S 200,00013.342,668,000 19:02:29
New Home Co Inc. B 5,0003.9019,500 19:04:08
Barrett Business Services Inc O 2,00013.3826,760 19:07:01
S 2,17685.20185,397 19:07:01
Skyworks Solutions, Inc. O 99960.9760,909 19:08:20
S 99976.4576,373 19:08:20
Zscaler, Inc. S 4,80780.75388,150 19:09:02
Merit Medical Systems Inc S 40,00036.861,474,480 19:11:28
Facebook Inc O 98,852.000 19:12:35
S 55,000182.9110,059,830 19:12:35
Power Integrations Inc S 36483.7730,490 19:12:49
Forescout Technologies, Inc S 1,95736.2870,999 19:19:51
Ball Corp S 24,00077.771,866,456 19:21:33
S 24,00077.051,849,200 19:21:33
Livexlive Media, Inc. B 2,5002.646,597 19:30:50
B 2,5362.636,682 19:30:50
Gates Industrial Corp Plc B 100,0007.89789,000 19:34:26
B 100,0007.95795,000 19:34:26
B 46,5007.98371,070 19:34:26
B 46,5007.98371,070 19:35:58
B 100,0007.95795,000 19:35:58
B 100,0007.89789,000 19:35:58
Zynga Inc O 158,5001.35214,767 19:37:52
S 41,5005.68235,720 19:37:52
Forescout Technologies, Inc O 5,5028.4646,546 19:53:48
S 7,67636.35279,037 19:53:48
Exelixis, Inc. S 35,04020.11704,654 20:02:13
Note: B: Buy;   S: Sale;   O: Option Exercise.

Page:  1   2   3   4   5   6